NOAA 17 DEB, 48742

Orbit data source: Space-Track

NOAA 17 DEB, 48742 is space debris in SSO originally from a launch on Mon, 24 Jun 2002 UTC launched from the Air Force Western Test Range (AFWTR). Debris objects in space refer to the collection of defunct objects orbiting the Earth. Examples of debris include non-operational satellites, rocket bodies, and fragments generated from explosions, collisions, or faulty payload assembly.

Loading next visibility...
Identifier
48742, 2002-032CB
Orbit
SSO
Country
Flag of USUS
Related business
Manufacturer
Unknown
Mission
Spacecraft
Bus & Motor
Unknown
Mass
Unknown
Launch date (UTC)
2002-06-24 (24 years ago)
Launch vehicle
Unknown
Launch site
Air Force Western Test Range (AFWTR)
Object type
Payload
Rocket body
Debris
Shape & HBR
Unknown shape, 0.1 m
Radar Cross Section
Medium (>0.1 m² and <1 m²)

Expand to show TLE details & history
Last TLE update: 2 days ago

TLE from 2 days ago
0 NOAA 17 DEB
1 48742U 02032CB  26171.20608446  .00006157  00000-0  13844-2 0  9990
2 48742  98.7750 166.8714 0012308 301.9221  58.0778 14.56800351274470
Epoch: 2026-06-20T04:56Z
TLE epoch observation values (Epoch: 2026-06-20T04:56:45.697Z)
Latitude
-0.00001°
Longitude
-175.74304°
Altitude
701.885 km
Speed
7.507 km/s
True Right ascension
11h 07m 29s
True Declination
0° 00' 00"
Sunlit
Object was in daylight at epoch
Visualization orbit readout
Latitude
Unknown
Longitude
Unknown
Altitude
Unknown
Speed
Unknown
Apparent Right ascension
Unknown
Apparent Declination
Unknown
Sunlit
N/A
Visualization observer readout
Local Sidereal Time
21:39:35
Azimuth
Unknown
Elevation
Unknown
Doppler factor
Unknown
Orbital elements
Apogee altitude
709.35 km
Perigee altitude
691.924 km
Semi-major axis
7,078.774 km
Eccentricity
0.00123
Inclination
98.775°
RAAN
166.8714°
Arg. of periapsis
301.9221°
True anomaly
58.19761°
Mean anomaly
58.0778°
Eccentric anomaly
58.13769°
Mean motion
3.64423 °/min
Orbital period
98.79 mins
BSTAR
0.0013844
Loading maneuver chart data...
Computing Atmospheric mass density...

Documentation

Showing up to 5 results
|